DW3200 Weather Reports


time (UTC)temp
F
wind
direction
speed
knots
gust
knots
rain 1hr
in
rain 24hr
in
rain mn
in
humidity
%
barometer
mb
20260509180015 59 114 0.9 0.0 0.00 0.00 0.00 44 1020.6
20260509174507 60 101 0.9 0.0 0.00 0.00 0.00 43 1020.7
20260509173006 60 102 0.9 0.0 0.00 0.00 0.00 46 1020.6
20260509171501 58 72 0.9 0.0 0.00 0.00 0.00 47 1020.7
20260509170002 58 304 0.9 0.0 0.00 0.00 0.00 48 1020.7
20260509164606 58 304 0.0 0.0 0.00 0.00 0.00 45 1020.8
20260509163106 58 304 0.9 0.0 0.00 0.00 0.00 46 1020.9
20260509161550 57 303 0.0 0.0 0.00 0.00 0.00 46 1020.8
20260509160039 57 303 0.0 0.0 0.00 0.00 0.00 48 1020.6
20260509154523 56 303 0.0 0.0 0.00 0.00 0.00 52 1020.6
20260509153021 53 303 0.0 0.0 0.00 0.00 0.00 66 1020.7
20260509151601 50 303 0.0 0.0 0.00 0.00 0.00 75 1020.6
20260509150109 48 303 0.0 0.0 0.00 0.00 0.00 82 1020.6
20260509144537 46 303 0.0 0.0 0.00 0.00 0.00 86 1020.7
20260509143046 45 303 0.0 0.0 0.00 0.00 0.00 88 1020.8
20260509141524 42 303 0.0 0.0 0.00 0.00 0.00 91 1020.7
20260509140016 39 303 0.0 0.0 0.00 0.00 0.00 90 1020.6
20260509134558 37 303 0.0 0.0 0.00 0.00 0.00 90 1020.5
20260509133105 37 303 0.0 0.0 0.00 0.00 0.00 90 1020.4
20260509131539 36 303 0.0 0.0 0.00 0.00 0.00 91 1020.1
20260509130039 35 303 0.0 0.0 0.00 0.00 0.00 90 1020.1
20260509124521 35 303 0.0 0.0 0.00 0.00 0.00 90 1020.0
20260509123016 35 303 0.0 0.0 0.00 0.00 0.00 89 1019.9
20260509121601 35 303 0.0 0.0 0.00 0.00 0.00 89 1019.7
20260509120055 35 303 0.0 0.0 0.00 0.00 0.00 89 1019.5
20260509114555 35 303 0.0 0.0 0.00 0.00 0.00 88 1019.3
20260509113039 36 303 0.0 0.0 0.00 0.00 0.00 89 1019.2
20260509111537 36 303 0.0 0.0 0.00 0.00 0.00 89 1019.1
20260509110035 35 303 0.0 0.0 0.00 0.00 0.00 88 1018.9
20260509104533 36 303 0.0 0.0 0.00 0.00 0.00 88 1018.9
20260509103029 37 303 0.0 0.0 0.00 0.00 0.00 88 1018.8
20260509101528 37 303 0.0 0.0 0.00 0.00 0.00 87 1018.6
20260509100026 37 303 0.0 0.0 0.00 0.00 0.00 87 1018.4
20260509094506 38 303 0.0 0.0 0.00 0.00 0.00 87 1018.2
20260509093003 38 303 0.0 0.0 0.00 0.00 0.00 86 1018.0
20260509091551 39 303 0.0 0.0 0.00 0.00 0.00 86 1017.9
20260509090058 39 303 0.0 0.0 0.00 0.00 0.00 86 1017.9
20260509084527 39 303 0.0 0.0 0.00 0.00 0.00 85 1017.8
20260509083040 40 303 0.0 0.0 0.00 0.00 0.00 85 1017.8
20260509081505 40 303 0.0 0.0 0.00 0.00 0.00 84 1017.7
20260509080001 40 303 0.0 0.0 0.00 0.00 0.00 84 1017.5
20260509074543 41 303 0.0 0.0 0.00 0.00 0.00 83 1017.4
20260509073140 42 303 0.0 0.0 0.00 0.00 0.00 83 1017.3
20260509071523 42 303 0.0 0.0 0.00 0.00 0.00 83 1017.2
20260509070022 42 303 0.0 0.0 0.00 0.00 0.00 82 1017.0
20260509064600 42 303 0.0 0.0 0.00 0.00 0.00 81 1016.8
20260509063120 43 303 0.0 0.0 0.00 0.00 0.00 80 1016.7
20260509061535 44 303 0.0 0.0 0.00 0.00 0.00 79 1016.6
20260509060033 45 303 0.0 0.0 0.00 0.00 0.00 78 1016.6
20260509054512 45 303 0.0 0.0 0.00 0.00 0.00 76 1016.4
20260509053017 46 303 0.0 0.0 0.00 0.00 0.00 75 1016.2
20260509051551 47 303 0.0 0.0 0.00 0.00 0.00 74 1016.0
20260509050057 48 303 0.0 0.0 0.00 0.00 0.00 71 1016.0
20260509044526 49 303 0.0 0.0 0.00 0.00 0.00 68 1015.8
20260509043033 51 303 0.0 0.0 0.00 0.00 0.00 67 1015.8
20260509041600 51 303 0.0 0.0 0.00 0.00 0.00 65 1015.7
20260509040059 52 303 0.0 0.0 0.00 0.00 0.00 62 1015.5
20260509034537 53 303 0.0 0.0 0.00 0.00 0.00 60 1015.3
20260509033044 55 303 0.0 0.0 0.00 0.00 0.00 56 1015.1
20260509031516 56 303 0.0 0.0 0.00 0.00 0.00 55 1014.9
20260509030020 59 303 0.0 0.0 0.00 0.00 0.00 50 1014.6
20260509024604 61 303 0.0 0.0 0.00 0.00 0.00 44 1014.5
20260509023055 62 303 0.0 0.0 0.00 0.00 0.00 40 1014.2
20260509021543 63 303 0.0 0.0 0.00 0.00 0.00 39 1014.2
20260509020047 63 303 0.0 0.0 0.00 0.00 0.00 39 1014.1
20260509014542 63 303 0.9 0.0 0.00 0.00 0.00 38 1014.1
20260509013047 62 303 3.5 0.0 0.00 0.00 0.00 40 1014.1
20260509011545 62 305 3.5 0.0 0.00 0.00 0.00 40 1014.1
20260509010041 64 282 5.2 0.0 0.00 0.00 0.00 37 1014.1
20260509004552 62 296 3.5 0.0 0.00 0.00 0.00 39 1014.2
20260509003042 62 293 2.6 0.0 0.00 0.00 0.00 39 1014.2
20260509001522 63 294 3.5 0.0 0.00 0.00 0.00 40 1014.2
20260509000036 64 288 3.5 0.0 0.00 0.00 0.00 39 1014.2
20260508234504 65 289 5.2 0.0 0.00 0.00 0.00 40 1014.1
20260508233004 65 288 4.3 0.0 0.00 0.00 0.00 40 1014.1
20260508231604 64 306 5.2 0.0 0.00 0.00 0.00 41 1014.1
20260508230046 66 313 3.5 0.0 0.00 0.00 0.00 38 1014.0
20260508224605 64 294 2.6 0.0 0.00 0.00 0.00 38 1013.9
20260508223028 64 296 3.5 0.0 0.00 0.00 0.00 40 1014.1
20260508221533 65 292 5.2 0.0 0.00 0.00 0.00 40 1014.1
20260508220010 65 289 4.3 0.0 0.00 0.00 0.00 42 1014.2
20260508214511 64 290 6.1 0.0 0.00 0.00 0.00 44 1014.1
20260508213052 64 304 4.3 0.0 0.00 0.00 0.00 46 1014.1
20260508211554 64 290 4.3 0.0 0.00 0.00 0.00 48 1014.1
20260508210036 64 296 3.5 0.0 0.00 0.00 0.00 50 1014.2
20260508204535 64 299 3.5 0.0 0.00 0.00 0.00 51 1014.1
20260508203016 65 277 4.3 0.0 0.00 0.00 0.00 46 1014.1
20260508201516 64 281 4.3 0.0 0.00 0.00 0.00 50 1014.1
20260508200110 64 292 3.5 0.0 0.00 0.00 0.00 49 1013.9
20260508194600 66 199 1.7 0.0 0.00 0.00 0.00 38 1013.8
20260508193048 66 200 2.6 0.0 0.00 0.00 0.00 40 1013.9
20260508191538 65 225 0.9 0.0 0.00 0.00 0.00 37 1014.0
20260508190020 65 245 1.7 0.0 0.00 0.00 0.00 36 1014.1
20260508184525 65 222 1.7 0.0 0.00 0.00 0.00 36 1014.2
20260508183137 64 213 0.9 0.0 0.00 0.00 0.00 35 1014.2
20260508181612 64 223 1.7 0.0 0.00 0.00 0.00 35 1014.1